Surname First Name No Gun Time Position
Rice Samuel 1360 0:10:08 1
Kalbfell Benjamin 1483 0:10:13 2
Birtwhistle Jacob 1456 0:10:16 3
Dunn Ben 1356 0:10:19 4
Phillips Kieran 1351 0:10:20 5
Carter Ethan 1497 0:10:35 6
Luttmek Eli 1357 0:10:35 7
Liston Ryan 1492 0:10:40 8
Cock Dylan 1375 0:10:41 9
Rawlings Tom 1378 0:10:54 10
Dewar Kayden 1447 0:11:01 11
Segger Hayden 1432 0:11:02 12
Deegan James 1485 0:11:02 13
Templeton Jacob 1421 0:11:04 14
Grey Brady 1369 0:11:07 15
Gorrie Adam 1484 0:11:08 16
Smith Ross 1352 0:11:11 17
Hewitt Ayden 1480 0:11:27 18
Taylor William 1367 0:11:31 19
Howe Jack 1397 0:11:31 20
Hughes Jamie 1419 0:11:32 21
Beswick Jarrod 1353 0:11:37 22
Lukic Michael 1354 0:11:43 23
Riley Kyron 1407 0:11:44 24
Douma Jack 1464 0:11:45 25
Button Isaac 1372 0:11:46 26
Linnane Michael 1409 0:11:51 27
Talbot Robert 1373 0:11:56 28
Stokes Jaxon 1403 0:11:57 29
Shrosbree Nathan 1379 0:11:59 30
Emmerton Brock 1494 0:12:02 31
Carter Jye 1460 0:12:03 32
Fischer Malik 1482 0:12:07 33
Parry David 1454 0:12:07 34
Mcgrail Cullen 1425 0:12:09 35
Sims Aaron 1517 0:12:11 36
Sheahen Brodie 1487 0:12:12 37
Batt Stuart 1495 0:12:15 38
Cameron Owen 1370 0:12:19 39
Chettle Joshua 1389 0:12:21 40
Cowgill Dylan 1446 0:12:23 41
Hennessy Ethan 1459 0:12:27 42
Fairbrother Alex 1468 0:12:28 43
Jackson Bodie 1435 0:12:31 44
Billing Andrew 1423 0:12:32 45
Walker Mitch 1358 0:12:33 46
Symmons Claye 1411 0:12:38 47
Groom Stuart 1420 0:12:42 48
Brient James 1457 0:12:43 49
White Jordan 1412 0:12:43 50
Braid Joe 1429 0:12:45 51
Heuzlewood Bryce 1388 0:12:45 52
Williams Jordan 1490 0:12:47 53
Hay Adam 1474 0:12:54 54
Fahey Declan 1394 0:12:59 55
Woolley Jordan 1458 0:13:04 56
Gates William 1440 0:13:05 57
Clingeleffer Braden 1462 0:13:15 58
Dilger Jack 1500 0:13:16 59
Pedersen Erik 1496 0:13:17 60
Bramich Patrick 1431 0:13:21 61
Hird Jack 1413 0:13:21 62
Guilbert Daniel 1434 0:13:21 63
Watts Jake 1493 0:13:21 64
White Ruben 1476 0:13:24 65
Tammens Jack 1499 0:13:27 66
Willcox Andrew 1417 0:13:28 67
Rubock Nick 1488 0:13:29 68
Hingston Shaun 1355 0:13:30 69
Yaxley Caleb 1515 0:13:32 70
Speglic Rohan 1518 0:13:33 71
Mitchell Thomas 1473 0:13:35 72
Clark Samuel 1386 0:13:37 73
Dole Cameron 1404 0:13:38 74
Overton Damon 1365 0:13:38 75
Jones Brent 1467 0:13:48 76
Matthews Jordan 1383 0:13:49 77
Patman Thomas 1470 0:13:56 78
Cock Adam 1374 0:14:08 79
Harris Brayden 1442 0:14:08 80
Scolyer Jarrod 1427 0:14:10 81
Thomas Nathan 1465 0:14:13 82
Keep Alex 1393 0:14:17 83
Garwood Kye 1516 0:14:20 84
Dennison Kade 1491 0:14:24 85
Cramer Daniel 1424 0:14:26 86
Saward Shannon 1498 0:14:27 87
Mcdonald Ben 1371 0:14:28 88
Cable Bradley 1410 0:14:29 89
Heuzlewood Alec 1387 0:14:39 90
Troughton Isaac 1444 0:14:46 91
Maney Mitchell 1453 0:14:46 92
Harding Tyler 1448 0:14:49 93
Whiteley Zachary 1384 0:14:51 94
Radford Liam 1422 0:14:58 95
Troughton Aidan 1437 0:15:04 96
Potter Oliver 1368 0:15:10 97
Nutting Liam 1455 0:15:30 98
Wiggins Aidan 1438 0:15:36 99
Holland Jack 1426 0:15:52 100
Lyngstad Darrien 1436 0:15:58 101
Beveridge Ross 1391 0:16:04 102
Ellen Thanalert 1443 0:16:14 103
Swain Izaiah 1381 0:16:15 104
Brett Andrew 1414 0:16:18 105
Wilson Mitchel 1428 0:16:24 106
Swain Domonic 1382 0:16:32 107
O'Rourke Brandon 1430 0:16:36 108
Sheahen Benjamin 1466 0:16:37 109
Beer Nathan 1451 0:16:57 110
Lehman Ryley 1520 0:17:10 111
Langerak Caleb 1439 0:17:12 112
Hall Edward 1363 0:17:14 113
Brain Nathan 1415 0:17:15 114
Brett Ashtyn 1519 0:17:21 115
Snooks Cameron 1486 0:17:23 116
Mamonski Julian 1406 0:17:28 117
Woods Rodney 1475 0:17:47 118
Kearney Ryan 1441 0:18:34 119
Seabourne Blayne 1408 0:19:38 120
Wilson Jhayden 1471 0:20:07 121
Hamilton Baillee 1445 0:20:07 122
Salter Justin 1481 0:20:29 123
Dunham Wade 1362 0:21:14 124
Poke Alexander 1433 0:21:17 125
Weller Tyler 1489 0:23:33 126
Tyler Bradley 1359 0:26:07 127
Coleman Phillip 1392 0:30:48 128